#timestamp,LO_Frequency,Hit,StdDev 
1554526815.6,286047001.3,N
1554526835.4,286047004.4,Y
1554526855.3,286046999.9,P
1554526875.1,286047000.9,N
1554526876.0,286047000.9,N
1554526895.8,286047000.2,N
1554526915.7,286047002.4,Y
1554526935.5,286046998.1,P
1554526955.3,286046998.1,N
1554526975.1,286046998.1,N
1554526995.9,286047001.2,N
1554527015.7,286047001.2,N
1554527035.5,286046998.4,N
1554527055.4,286046998.1,N
1554527075.2,286046998.4,N
1554527095.0,286046998.7,N
1554527095.9,286046998.7,N
1554527115.8,286046998.8,N
1554527135.6,286046998.7,N
1554527155.4,286046998.7,N
1554527175.3,286046998.7,N
1554527195.1,286046998.1,N
1554527196.0,286046998.1,N
1554527215.8,286046998.7,N
1554527235.6,286046998.7,N
1554527255.5,286046998.1,N
1554527275.3,286046998.1,N
1554527295.1,286047001.2,N
1554527315.9,286047000.8,N
1554527335.7,286047000.8,N
1554527355.5,286046998.3,N
1554527375.4,286047000.8,N
1554527395.2,286047000.3,N
1554527415.0,286047001.0,N
1554527415.9,286047001.0,N
1554527435.8,286046998.2,N
1554527455.6,286047000.7,N
1554527475.4,286046998.8,N
1554527495.2,286046998.1,N
1554527515.1,286047000.6,N
1554527516.0,286047000.6,N
1554527535.8,286046999.9,N
1554527555.6,286047002.3,N
1554527575.5,286047000.2,N
1554527595.3,286047000.6,N
1554527615.1,286047000.9,N
1554527635.9,286047000.6,N
1554527655.7,286047000.9,N
1554527675.5,286047000.2,N
1554527695.4,286047000.5,N
1554527715.2,286047000.5,N
1554527735.0,286047000.3,N
1554527735.9,286047000.3,N
1554527755.8,286047000.0,N
1554527775.6,286047000.0,N
1554527795.4,286047000.2,N
1554527815.2,286047000.6,N
1554527835.1,286046999.8,N
1554527836.0,286046999.8,N
1554527855.8,286046999.8,N
1554527875.6,286046999.7,N
1554527895.5,286047002.8,Y
1554527915.3,286047002.8,P
1554527935.1,286047002.8,N
1554527955.9,286047002.8,N
1554527975.7,286047002.4,N
1554527995.5,286047002.3,N
1554528015.4,286047002.3,N
1554528035.2,286047002.3,N
1554528055.0,286047002.3,N
1554528055.9,286047002.3,Y
1554528075.8,286046998.6,P
1554528095.6,286046998.3,N
1554528115.4,286047000.8,N
1554528135.3,286046998.6,N
1554528155.1,286046998.6,N
1554528156.0,286046998.6,N
1554528175.8,286047001.2,N
1554528195.7,286047001.2,N
1554528215.5,286046998.1,N
1554528235.3,286046998.8,N
1554528255.1,286046998.7,N
1554528275.9,286046998.7,N
1554528295.7,286046998.8,N
1554528315.5,286046998.8,N
1554528335.4,286046998.5,N
1554528355.2,286046998.5,N
1554528375.0,286046999.3,N
1554528375.9,286046999.3,N
1554528395.8,286046996.5,Y
1554528415.6,286046998.6,P
1554528435.4,286046998.6,P
1554528455.3,286046998.6,P
1554528475.1,286046998.3,Y
1554528495.8,286046999.8,P
1554528515.7,286047000.6,N
1554528535.5,286047000.9,N
1554528555.3,286047001.0,N
1554528575.2,286047000.3,N
1554528595.9,286047000.7,N
1554528615.7,286047000.8,N
1554528635.5,286047000.5,N
1554528655.4,286047001.2,N
1554528675.2,286047000.9,N
1554528695.0,286047001.0,N
1554528695.9,286047001.0,N
1554528715.8,286047000.0,N
1554528735.6,286047000.2,N
1554528755.4,286046998.1,Y
1554528775.3,286047000.6,P
1554528795.1,286046998.4,P
1554528815.8,286046998.4,N
1554528835.7,286046999.3,N
1554528855.5,286046998.4,N
1554528875.3,286046998.4,N
1554528895.2,286046998.7,N
1554528915.9,286047001.2,N
1554528935.7,286047001.2,N
1554528955.5,286046998.2,N
1554528975.4,286046998.1,N
1554528995.2,286046998.7,N
1554529015.0,286046998.1,N
1554529015.9,286046998.1,N
1554529035.8,286046998.7,N
1554529055.6,286046998.7,N
1554529075.4,286046998.1,N
1554529095.3,286047001.1,N
1554529115.1,286047001.2,N
1554529116.0,286047001.2,N
1554529135.8,286046998.4,N
1554529155.7,286047001.2,N
1554529175.5,286046998.6,N
1554529195.3,286047000.7,N
1554529215.1,286047000.9,N
1554529235.9,286047000.5,N
1554529255.7,286047000.4,N
1554529275.5,286047000.3,N
1554529295.4,286047000.0,N
1554529315.2,286047002.7,N
1554529335.0,286047002.3,N
1554529335.9,286047002.3,N
1554529355.8,286046999.8,N
1554529375.6,286046999.7,N
1554529395.4,286047001.8,N
1554529415.3,286047002.4,N
1554529435.1,286047002.7,N
1554529436.0,286047002.7,N
1554529455.8,286047002.7,N
1554529475.7,286047002.2,N
1554529495.5,286047002.1,N
1554529515.3,286047002.2,N
1554529535.1,286047002.8,N
1554529555.9,286047002.1,N
1554529575.7,286047002.7,N
1554529595.5,286047002.4,N
1554529615.4,286047002.4,N
1554529635.2,286047002.3,N
1554529655.0,286047001.9,N
1554529655.9,286047001.9,N
1554529675.8,286046999.7,N
1554529695.6,286047002.2,N
1554529715.4,286046999.7,N
1554529735.3,286047002.7,N
1554529755.1,286047002.2,N
1554529756.0,286047002.2,N
1554529775.8,286046999.9,N
1554529795.7,286047001.7,N
1554529815.5,286047002.7,N
1554529835.3,286047002.1,N
1554529855.1,286047002.7,N
1554529875.9,286047002.4,N
1554529895.7,286047002.7,N
1554529915.5,286047002.7,N
1554529935.4,286047002.4,N
1554529955.2,286047002.7,Y
1554529975.0,286046998.6,P
1554529975.9,286046998.6,N
1554529995.8,286046998.5,N
1554530015.6,286047001.1,N
1554530035.4,286046998.6,N
1554530055.3,286047000.8,N
1554530075.1,286047000.7,N
1554530076.0,286047000.7,N
1554530095.8,286047000.8,N
1554530115.7,286047001.1,N
1554530135.5,286047001.1,N
1554530155.3,286047001.1,N
1554530175.1,286047001.2,N
1554530195.9,286046998.3,N
1554530215.7,286046998.6,N
1554530235.5,286047001.2,N
1554530255.4,286047001.2,N
1554530275.2,286047001.2,N
1554530295.0,286046998.1,N
1554530295.9,286046998.1,N
1554530315.8,286046998.1,N
1554530335.6,286046998.2,N
1554530355.4,286046998.2,N
1554530375.3,286046998.9,N
1554530395.1,286046998.8,N
1554530396.0,286046998.8,N
